Location: Bussy-Saint-Georges
(48.8410°N, 2.7017°E)
Time: 16:17:20
(UTC+00:00)

Cosmos 2227 - Pass Details

Date: 18 October 2021
Orbit: 833 x 863 km, 71.0° (Epoch: 28 November)

Event Time Altitude Azimuth Distance (km) Brightness Sun altitude
Rises 18:17:29 0° 332° (NNW) 3,451 7.8 -14.5°
Reaches altitude 10° 18:19:58 10° 335° (NNW) 2,512 7.0 -14.9°
Maximum altitude 18:25:45 73° 60° (ENE) 906 4.2 -15.9°
Enters shadow 18:31:17 11° 145° (SE) 2,418 6.2 -16.8°
